Regional Weather Roundup
Issued by NWS Grand Forks, ND

Home | Current Version | Previous Version | Graphics & Text | Print | Product List | Glossary On
Versions: 1 2 3 4 5 6 7 8 9 10 11 12 13 14 15 16 17 18 19 20 21 22 23 24 25 26 27 28 29 30 31 32 33 34 35 36 37 38 39 40 41 42 43 44 45 46 47 48 49 50
000
ASUS43 KFGF 282131
RWRFGF
PRAIRIE TO PINES  WEATHER ROUNDUP
NATIONAL WEATHER SERVICE EASTERN NORTH DAKOTA/GRAND FORKS ND
400 PM CDT WED JUN 28 2017

 **SATELLITE DATA USED TO AUGMENT SKY COVER AT AUTOMATED STATIONS**
 *****  WEATHER ACROSS EASTERN NORTH DAKOTA  *****

CITY           SKY/WX    TMP DP  RH WIND       PRES   REMARKS
GRAND FORKS    CLOUDY    66  63  90 N13       29.58R
GRAND FRKS AFB CLOUDY    64  64 100 N8        29.60R
DEVILS LAKE    FAIR      75  55  49 NW16      29.63R
FARGO          CLOUDY    70  63  78 NW22G29   29.57R
WAHPETON ARPT  MOCLDY    70  59  68 NW23G29   29.56R
$$

 ***** WEATHER ACROSS CENTRAL AND WESTERN NORTH DAKOTA  *****

CITY           SKY/WX    TMP DP  RH WIND       PRES   REMARKS
BISMARCK       FAIR      82  42  24 N12       29.69S
MINOT          FAIR      80  45  28 N14       29.67F
JAMESTOWN      FAIR      78  55  44 NW20G28   29.62R
MINOT AFB      FAIR      79  46  30 N8        29.67R
GARRISON         N/A     78  45  30 N10G21    29.69S
WILLISTON      FAIR      81  37  20 N6        29.72F
DICKINSON      FAIR      81  33  17 E7        29.72F
HETTINGER      FAIR      82  27  13 N8G20     29.75F
$$

 *****  OTHER AIRPORT OBSERVATIONS IN OUR AREA  *****

CITY           SKY/WX    TMP DP  RH WIND       PRES   REMARKS
WALHALLA       NOT AVBL
GRAFTON AIRPOR CLOUDY    64  64 100 NW7       29.62R
VALLEY CITY AR CLOUDY    72  68  88 N13G24    29.63R
CANDO          NOT AVBL
CAVALIER APRT  CLOUDY    66  64  94 E5        29.60R
GWINNER        CLOUDY    75  63  64 N18G28    29.60R
SHEYENNE NWR     N/A     75  62  64 NW15      29.95S
ROLLA            N/A     73  50  43 NW18G25   29.66R
 ***** THE ABOVE OBSERVATIONS ARE NON NWS ARE NOT QUALITY
       CONTROLLED AND MAY MIS-REPORT RAIN FOR SNOW...
$$

  *****  WEATHER ACROSS NORTHERN MINNESOTA  *****

CITY           SKY/WX    TMP DP  RH WIND       PRES   REMARKS
FLAG ISLAND    LGT RAIN  61  57  88 NE6       29.60R
WARROAD        RAIN      61  55  82 E8        29.61R
ROSEAU         RAIN      61  55  82 NE8       29.60R
HALLOCK        PTSUNNY   64  63  94 E8        29.60R
THF RVR FALLS  LGT RAIN  59  57  94 NE9       29.59R
BAUDETTE       LGT RAIN  62  61  96 NE5       29.58R
WASKISH        CLOUDY    64  61  88 NE7       29.55R
CROOKSTON      PTSUNNY   61  61 100 N9        29.59R
STEPHEN NDAWN    N/A     64  61  88 N5          N/A
GREENBUSH NDAW   N/A     61  57  88 NE7         N/A
$$
  *****  WEATHER ACROSS CENTRAL AND WEST MINNESOTA  *****

CITY           SKY/WX    TMP DP  RH WIND       PRES   REMARKS
FOSSTON        HVY RAIN  61  59  94 N9        29.55R
BEMIDJI        CLOUDY    61  58  90 E8        29.53R
PARK RAPIDS    CLOUDY    65  60  84 E6        29.50S
ELBOW LAKE     CLOUDY    68  63  84 W17       29.56R
WADENA         CLOUDY    64  63  94 W8        29.51R
DETROIT LAKES  DRIZZLE   63  63 100 NW14      29.54R
MOORHEAD       CLOUDY    66  61  82 NW18G28   29.57R
FERGUS FALLS   CLOUDY    66  61  82 NW22G30   29.53R
MORRIS MN      PTSUNNY   77  63  61 NW18G25   29.55S
STAPLES        CLOUDY    66  64  94 W7        29.50S
$$
  *****  WEATHER ELSEWHERE ACROSS MINNESOTA  *****

CITY           SKY/WX    TMP DP  RH WIND       PRES   REMARKS
DULUTH         LGT RAIN  56  56 100 E9        29.57S
INTRNTL FALLS  LGT RAIN  63  59  87 E8        29.58F
ELY            LGT RAIN  57  55  94 E8        29.61F
CLOQUET        LGT RAIN  57  54  88 E9        29.55F
WHEATON        FAIR      75  61  60 NW21G29   29.58R
BRAINERD       LGT RAIN  66  65  96 SW9       29.49S FOG
HIBBING        RAIN      58  58 100 E8        29.55F FOG
ALEXANDRIA     CLOUDY    70  62  76 W18G28    29.56R
SAINT CLOUD    PTSUNNY   73  66  78 SW14G24   29.51S
MINNEAPOLIS    PTSUNNY   81  65  58 SW12      29.49S
$$

  *****  WEATHER ACROSS SOUTH DAKOTA  *****

CITY           SKY/WX    TMP DP  RH WIND       PRES   REMARKS
SIOUX FALLS    FAIR      84  65  52 W14G22    29.62R
BROOKINGS      FAIR      81  64  56 NW15G22   29.61S
WATERTOWN      FAIR      78  62  57 NW16G22   29.61R
HURON          FAIR      86  56  35 NW14G28   29.62S
SISSETON         N/A     78  64  61 NW20G30   29.56R
ABERDEEN       FAIR      84  52  33 NW15G25   29.61R
MITCHELL       FAIR      88  57  34 NW18G24   29.63R
PIERRE         FAIR      84  44  24 N12G21    29.68R
MOBRIDGE       FAIR      86  31  13 NW13      29.66S
RAPID CITY     FAIR      80  46  30 VRB3      29.76S
$$

  *****  SOME WEATHER IN NEARBY STATES *****

CITY           SKY/WX    TMP DP  RH WIND       PRES   REMARKS
GLASGOW MT     FAIR      76  43  30 E17       29.68F
GREAT FALLS MT FAIR      78  28  16 W16G28    29.75S
CHEYENNE WY    FAIR      77  36  22 SW9       29.92F
SCOTTSBLUFF NE FAIR      86  50  28 E10       29.77F
OMAHA NE       PTSUNNY   90  69  50 SW14      29.65S HX  94
DES MOINES IA  PTSUNNY   84  70  62 S18G26    29.68F
DAVENPORT IA   NOT AVBL
CHICAGO IL     CLOUDY    79  61  53 S20       29.83F
EAU CLAIRE WI  PTSUNNY   72  65  78 S16G26    29.57F
LA CROSSE WI   LGT RAIN  74  69  85 S17       29.60F
$$

  *****  SOME NATIONAL WEATHER *****

CITY           SKY/WX    TMP DP  RH WIND       PRES   REMARKS
LA GUARDIA NY  FAIR      80  49  33 NW12G22   30.07F
RALEIGH NC     FAIR      83  52  34 E7        30.17F
ATLANTA GA     FAIR      87  61  41 E8        30.10F
NEW ORLEANS LA CLOUDY    78  73  84 S10       29.98F
OKLAHOMA CITY  FAIR      90  64  42 S20G35    29.82F HX  91
ALBUQUERQUE NM FAIR      92   8   4 VRB7G22   29.98F
SALT LAKE CITY FAIR      90  35  14 N6        29.83F
LOS ANGELES CA FAIR      71  60  68 W14       29.88F
BOISE ID       FAIR      82  32  16 NW8G22    29.86F
SEATTLE WA     PTSUNNY   64  52  64 SW9       30.06F
$$

*** WEATHER ACROSS MANITOBA...SASKATCHEWAN AND ONTARIO ***
                ***ONTARIO***

CITY           SKY/WX    TMP DP  RH WIND       PRES   REMARKS
GERALDTON      PTSUNNY   79  46  31 SE10      29.73S
THUNDER BAY    CLOUDY    64  52  63 E17       29.69F
SIOUX LOOKOUT  MOSUNNY   75  48  38 VRB3      29.63F
TORONTO        PTSUNNY   75  52  43 SW14G24   30.01F
BIG TROUT LK   CLOUDY    57  48  72 E6        29.84S
PICKLE LAKE    CLOUDY    72  50  46 E6        29.71F
DRYDEN         MOSUNNY   75  52  43 SE13      29.62S
KENORA         LGT RAIN  64  57  77 NE5       29.62
$$
                *** MANITOBA***

CITY           SKY/WX    TMP DP  RH WIND       PRES   REMARKS
BRANDON        MOSUNNY   77  54  44 NW14G21   29.62S
DAUPHIN        PTSUNNY   77  52  41 NW8       29.60
ISLAND LAKE    CLOUDY    54  52  94 E7        29.74F
PILOT MOUND      N/A     73  52  46 N13         N/A
THE PAS        PTSUNNY   55  54  94 N9        29.65R
THOMPSON       LGT RAIN  48  46  93 E9G23     29.78S
WINNIPEG       LGT RAIN  66  64  94 SE8       29.60R
LYNN LAKE      LGT RAIN  46  45  93 NE14G23   29.81S
CHURCHILL      MOSUNNY   48  39  71 E17       30.05S
GILLAM         CLOUDY    57  45  62 E9G18     29.87S
$$
                ***SASKATCHEWAN***

CITY           SKY/WX    TMP DP  RH WIND       PRES   REMARKS
ESTEVAN        MOSUNNY   77  46  33 NW15      29.72S
KINDERSLEY     PTSUNNY   70  46  43 SW7       29.67S THUNDER
LLOYDMINSTER   PTSUNNY   66  48  52 NW8G20    29.67R
PRINCE ALBERT  PTSUNNY   66  52  59 N14G24    29.68R
REGINA         PTSUNNY   70  48  46 NW9       29.72F
YORKTON        SUNNY     73  50  43 NW17G26   29.66R
N. BATTLEFORD  SUNNY     72  48  43 W12       29.69S
LA RONGE       CLOUDY    52  46  82 NE16G24   29.73S
SASKATOON      MOSUNNY   70  46  43 NW3       29.69F
SWIFT CURRENT  SUNNY     73  45  35 E9G18     29.68F
$$
NOTE: THESE ARE AUTOMATED STATIONS WITH LIMITED QUALITY CONTROL
      "FAIR" INDICATES FEW OR NO CLOUDS BELOW 12,000 FEET WITH NO
      SIGNIFICANT WEATHER AND/OR OBSTRUCTIONS TO VISIBILITY.
      SKY/WX - SKY CONDITION AND SIGNIFICANT WEATHER.
      TMP - AIR TEMPERATURE.    DP   - DEWPOINT TEMPERATURE.
      RH  - RELATIVE HUMIDITY.  PRES - PRESSURE.
      HX  - HEAT INDEX.         WCI  - WIND CHILL INDEX.
$




USA.gov is the U.S. government's official web portal to all federal, state and local government web resources and services.